User: anonymous   Login
Location: Bonny Doon Airfield
(37.0704°N, 122.1252°W)
Time: 15:13:00
(UTC-07:00)
Language:

ISS - Orbit

View from above orbital plane
View from above orbital plane
View from above satellite
View from above satellite

Ground track
Ground track

The orbit data is extracted from the following two-line orbital elements,

1 25544U 98067A   18198.55247318  .00016717  00000-0  10270-3 0  9065
2 25544  51.6385 227.3676 0003921 324.0961  35.9927 15.53978992  3234
Epoch (UTC): 17 July 2018 13:15:33
Eccentricity: 0.0003921
inclination: 51.6385°
perigee height: 402 km
apogee height: 408 km
right ascension of ascending node: 227.3676°
argument of perigee: 324.0961°
revolutions per day: 15.53978992
mean anomaly at epoch: 35.9927°
orbit number at epoch: 323

The dashed part of the orbit path shows where the satellite is in the earth's shadow,  

DLR